Time,TemperatureF,DewpointF,PressureIn,WindDirection,WindDirectionDegrees,WindSpeedMPH,WindSpeedGustMPH,Humidity,HourlyPrecipIn,Conditions,Clouds,dailyrainin,SoftwareType,DateUTC
2013-02-27 00:04:00,56.2,54.8,29.66,SW,225,0.0,3.0,95,0.00,,,0.00,WUHU216DAVISVP2,2013-02-27 05:04:00,
2013-02-27 00:09:00,55.9,54.5,29.67,NW,305,6.0,6.0,95,0.00,,,0.00,WUHU216DAVISVP2,2013-02-27 05:09:00,
2013-02-27 00:14:00,55.8,54.7,29.67,NW,305,0.0,6.0,96,0.00,,,0.00,WUHU216DAVISVP2,2013-02-27 05:14:00,
2013-02-27 00:19:00,55.5,54.4,29.67,NW,304,0.0,6.0,96,0.00,,,0.00,WUHU216DAVISVP2,2013-02-27 05:19:00,
2013-02-27 00:24:00,55.3,54.1,29.67,WNW,303,0.0,4.0,96,0.00,,,0.00,WUHU216DAVISVP2,2013-02-27 05:24:00,
2013-02-27 00:29:00,55.2,54.0,29.67,NW,304,0.0,2.0,96,0.00,,,0.00,WUHU216DAVISVP2,2013-02-27 05:29:00,
2013-02-27 00:34:00,55.1,53.9,29.67,NW,305,0.0,0.0,96,0.00,,,0.00,WUHU216DAVISVP2,2013-02-27 05:34:00,
2013-02-27 00:39:00,54.9,53.7,29.68,NW,305,0.0,0.0,96,0.00,,,0.00,WUHU216DAVISVP2,2013-02-27 05:39:00,
2013-02-27 00:44:00,55.2,54.3,29.68,NW,316,3.0,6.0,97,0.00,,,0.00,WUHU216DAVISVP2,2013-02-27 05:44:00,
2013-02-27 00:50:00,55.4,54.5,29.68,NNW,337,3.0,6.0,97,0.00,,,0.00,WUHU216DAVISVP2,2013-02-27 05:50:00,
2013-02-27 00:55:00,55.6,54.7,29.68,NNW,334,3.0,4.0,97,0.00,,,0.00,WUHU216DAVISVP2,2013-02-27 05:55:00,
2013-02-27 01:00:00,55.7,54.8,29.68,NNW,335,3.0,4.0,97,0.00,,,0.00,WUHU216DAVISVP2,2013-02-27 06:00:00,
2013-02-27 01:05:00,55.6,54.7,29.68,NNW,331,3.0,4.0,97,0.00,,,0.00,WUHU216DAVISVP2,2013-02-27 06:05:00,
2013-02-27 01:10:00,55.7,54.8,29.68,NW,319,0.0,9.0,97,0.00,,,0.00,WUHU216DAVISVP2,2013-02-27 06:10:00,
2013-02-27 01:15:00,55.7,54.8,29.69,NW,321,3.0,9.0,97,0.00,,,0.00,WUHU216DAVISVP2,2013-02-27 06:15:00,
2013-02-27 01:20:00,55.6,54.7,29.68,NW,314,3.0,9.0,97,0.00,,,0.00,WUHU216DAVISVP2,2013-02-27 06:20:00,
2013-02-27 01:25:00,55.5,54.6,29.69,WNW,291,3.0,6.0,97,0.00,,,0.00,WUHU216DAVISVP2,2013-02-27 06:25:00,
2013-02-27 01:30:00,55.5,54.6,29.69,WNW,300,3.0,6.0,97,0.00,,,0.00,WUHU216DAVISVP2,2013-02-27 06:30:00,
2013-02-27 01:35:00,55.4,54.2,29.69,NW,305,3.0,9.0,96,0.00,,,0.00,WUHU216DAVISVP2,2013-02-27 06:35:00,
2013-02-27 01:40:00,55.3,54.1,29.69,NW,312,3.0,9.0,96,0.00,,,0.00,WUHU216DAVISVP2,2013-02-27 06:40:00,
2013-02-27 01:45:00,55.3,54.1,29.70,West,278,3.0,9.0,96,0.00,,,0.00,WUHU216DAVISVP2,2013-02-27 06:45:00,
2013-02-27 01:50:00,55.1,53.9,29.70,NW,318,6.0,15.0,96,0.00,,,0.00,WUHU216DAVISVP2,2013-02-27 06:50:00,
2013-02-27 01:55:00,54.9,53.7,29.69,WNW,300,6.0,15.0,96,0.00,,,0.00,WUHU216DAVISVP2,2013-02-27 06:55:00,
2013-02-27 02:00:00,54.7,53.5,29.70,WNW,295,3.0,10.0,96,0.00,,,0.00,WUHU216DAVISVP2,2013-02-27 07:00:00,
2013-02-27 02:06:00,54.5,53.3,29.70,NW,309,3.0,10.0,96,0.00,,,0.00,WUHU216DAVISVP2,2013-02-27 07:06:00,
2013-02-27 02:11:00,54.2,52.8,29.70,WNW,293,3.0,9.0,95,0.00,,,0.00,WUHU216DAVISVP2,2013-02-27 07:11:00,
2013-02-27 02:16:00,54.0,52.6,29.70,NW,306,6.0,9.0,95,0.00,,,0.00,WUHU216DAVISVP2,2013-02-27 07:16:00,
2013-02-27 02:21:00,53.7,52.0,29.70,WNW,302,6.0,12.0,94,0.00,,,0.00,WUHU216DAVISVP2,2013-02-27 07:21:00,
2013-02-27 02:26:00,53.4,51.4,29.71,WNW,294,6.0,12.0,93,0.00,,,0.00,WUHU216DAVISVP2,2013-02-27 07:26:00,
2013-02-27 02:31:00,53.3,51.3,29.71,WNW,295,9.0,18.0,93,0.00,,,0.00,WUHU216DAVISVP2,2013-02-27 07:31:00,
2013-02-27 02:36:00,53.1,50.8,29.71,NW,313,12.0,18.0,92,0.00,,,0.00,WUHU216DAVISVP2,2013-02-27 07:36:00,
2013-02-27 02:41:00,53.0,50.4,29.71,NW,318,18.0,18.0,91,0.00,,,0.00,WUHU216DAVISVP2,2013-02-27 07:41:00,
2013-02-27 02:46:00,52.8,49.9,29.71,West,272,6.0,18.0,90,0.00,,,0.00,WUHU216DAVISVP2,2013-02-27 07:46:00,
2013-02-27 02:51:00,52.5,49.0,29.71,WNW,284,6.0,24.0,88,0.00,,,0.00,WUHU216DAVISVP2,2013-02-27 07:51:00,
2013-02-27 02:56:00,52.4,48.6,29.71,NW,315,12.0,24.0,87,0.00,,,0.00,WUHU216DAVISVP2,2013-02-27 07:56:00,
2013-02-27 03:01:00,52.2,48.4,29.71,WNW,300,6.0,21.0,87,0.00,,,0.00,WUHU216DAVISVP2,2013-02-27 08:01:00,
2013-02-27 03:06:00,52.0,48.3,29.71,WNW,298,6.0,18.0,87,0.00,,,0.00,WUHU216DAVISVP2,2013-02-27 08:06:00,
2013-02-27 03:11:00,51.7,47.6,29.71,SW,221,6.0,15.0,86,0.00,,,0.00,WUHU216DAVISVP2,2013-02-27 08:11:00,
2013-02-27 03:16:00,51.5,47.8,29.72,WNW,285,6.0,15.0,87,0.00,,,0.00,WUHU216DAVISVP2,2013-02-27 08:16:00,
2013-02-27 03:21:00,51.3,47.3,29.72,WNW,300,9.0,27.0,86,0.00,,,0.00,WUHU216DAVISVP2,2013-02-27 08:21:00,
2013-02-27 03:26:00,51.1,47.1,29.72,WSW,238,9.0,27.0,86,0.00,,,0.00,WUHU216DAVISVP2,2013-02-27 08:26:00,
2013-02-27 03:31:00,50.9,47.1,29.72,WNW,295,6.0,21.0,87,0.00,,,0.00,WUHU216DAVISVP2,2013-02-27 08:31:00,
2013-02-27 03:36:00,50.6,46.6,29.72,NNW,335,18.0,21.0,86,0.00,,,0.00,WUHU216DAVISVP2,2013-02-27 08:36:00,
2013-02-27 03:41:00,50.5,46.8,29.72,WNW,290,6.0,18.0,87,0.00,,,0.00,WUHU216DAVISVP2,2013-02-27 08:41:00,
2013-02-27 03:46:00,50.3,46.3,29.73,West,262,6.0,18.0,86,0.00,,,0.00,WUHU216DAVISVP2,2013-02-27 08:46:00,
2013-02-27 03:52:00,50.2,46.2,29.74,West,277,6.0,18.0,86,0.00,,,0.00,WUHU216DAVISVP2,2013-02-27 08:52:00,
2013-02-27 03:57:00,50.0,46.0,29.73,WNW,288,9.0,15.0,86,0.00,,,0.00,WUHU216DAVISVP2,2013-02-27 08:57:00,
2013-02-27 04:02:00,49.9,45.9,29.73,NW,321,3.0,15.0,86,0.00,,,0.00,WUHU216DAVISVP2,2013-02-27 09:02:00,
2013-02-27 04:07:00,49.7,45.7,29.74,WSW,239,3.0,12.0,86,0.00,,,0.00,WUHU216DAVISVP2,2013-02-27 09:07:00,
2013-02-27 04:12:00,49.5,45.5,29.74,WNW,287,0.0,12.0,86,0.00,,,0.00,WUHU216DAVISVP2,2013-02-27 09:12:00,
2013-02-27 04:17:00,49.3,45.3,29.73,SW,219,3.0,9.0,86,0.00,,,0.00,WUHU216DAVISVP2,2013-02-27 09:17:00,
2013-02-27 04:22:00,49.1,45.1,29.74,West,267,3.0,9.0,86,0.00,,,0.00,WUHU216DAVISVP2,2013-02-27 09:22:00,
2013-02-27 04:27:00,49.0,45.0,29.73,West,276,3.0,9.0,86,0.00,,,0.00,WUHU216DAVISVP2,2013-02-27 09:27:00,
2013-02-27 04:32:00,49.0,44.7,29.74,WSW,252,12.0,15.0,85,0.00,,,0.00,WUHU216DAVISVP2,2013-02-27 09:32:00,
2013-02-27 04:37:00,49.0,44.4,29.74,WSW,240,0.0,18.0,84,0.00,,,0.00,WUHU216DAVISVP2,2013-02-27 09:37:00,
2013-02-27 04:42:00,48.9,44.3,29.75,WSW,255,3.0,18.0,84,0.00,,,0.00,WUHU216DAVISVP2,2013-02-27 09:42:00,
2013-02-27 04:47:00,48.8,43.9,29.75,WSW,251,3.0,12.0,83,0.00,,,0.00,WUHU216DAVISVP2,2013-02-27 09:47:00,
2013-02-27 04:52:00,48.8,43.9,29.75,NNW,327,3.0,12.0,83,0.00,,,0.00,WUHU216DAVISVP2,2013-02-27 09:52:00,
2013-02-27 04:57:00,48.7,44.1,29.75,West,269,0.0,12.0,84,0.00,,,0.00,WUHU216DAVISVP2,2013-02-27 09:57:00,
2013-02-27 05:02:00,48.5,43.6,29.75,West,278,6.0,9.0,83,0.00,,,0.00,WUHU216DAVISVP2,2013-02-27 10:02:00,
2013-02-27 05:07:00,48.4,43.8,29.76,WSW,243,3.0,15.0,84,0.00,,,0.00,WUHU216DAVISVP2,2013-02-27 10:07:00,
2013-02-27 05:12:00,48.4,43.8,29.75,WSW,245,3.0,15.0,84,0.00,,,0.00,WUHU216DAVISVP2,2013-02-27 10:12:00,
2013-02-27 05:17:00,48.3,44.0,29.76,WSW,242,3.0,9.0,85,0.00,,,0.00,WUHU216DAVISVP2,2013-02-27 10:17:00,
2013-02-27 05:22:00,48.1,43.5,29.76,WSW,238,9.0,9.0,84,0.00,,,0.00,WUHU216DAVISVP2,2013-02-27 10:22:00,
2013-02-27 05:27:00,48.2,43.6,29.76,West,264,6.0,15.0,84,0.00,,,0.00,WUHU216DAVISVP2,2013-02-27 10:27:00,
2013-02-27 05:32:00,48.2,43.3,29.77,SW,233,6.0,15.0,83,0.00,,,0.00,WUHU216DAVISVP2,2013-02-27 10:32:00,
2013-02-27 05:38:00,48.1,43.5,29.77,WSW,249,6.0,15.0,84,0.00,,,0.00,WUHU216DAVISVP2,2013-02-27 10:38:00,
2013-02-27 05:43:00,48.3,43.1,29.77,WSW,239,3.0,18.0,82,0.00,,,0.00,WUHU216DAVISVP2,2013-02-27 10:43:00,
2013-02-27 05:48:00,48.2,43.0,29.77,SW,228,12.0,18.0,82,0.00,,,0.00,WUHU216DAVISVP2,2013-02-27 10:48:00,
2013-02-27 05:53:00,48.2,43.0,29.77,WSW,253,6.0,15.0,82,0.00,,,0.00,WUHU216DAVISVP2,2013-02-27 10:53:00,
2013-02-27 05:58:00,48.2,43.0,29.78,SW,233,12.0,15.0,82,0.00,,,0.00,WUHU216DAVISVP2,2013-02-27 10:58:00,
2013-02-27 06:03:00,48.3,42.4,29.78,WSW,242,9.0,21.0,80,0.00,,,0.00,WUHU216DAVISVP2,2013-02-27 11:03:00,
2013-02-27 06:08:00,48.4,42.5,29.78,WNW,285,9.0,21.0,80,0.00,,,0.00,WUHU216DAVISVP2,2013-02-27 11:08:00,
2013-02-27 06:13:00,48.4,42.5,29.78,West,266,6.0,18.0,80,0.00,,,0.00,WUHU216DAVISVP2,2013-02-27 11:13:00,
2013-02-27 06:18:00,48.4,42.5,29.78,SW,215,12.0,21.0,80,0.00,,,0.00,WUHU216DAVISVP2,2013-02-27 11:18:00,
2013-02-27 06:23:00,48.5,42.6,29.78,SSW,212,6.0,21.0,80,0.00,,,0.00,WUHU216DAVISVP2,2013-02-27 11:23:00,
2013-02-27 06:28:00,48.4,42.8,29.78,West,267,6.0,18.0,81,0.00,,,0.00,WUHU216DAVISVP2,2013-02-27 11:28:00,
2013-02-27 06:33:00,48.3,43.1,29.79,SW,234,6.0,15.0,82,0.00,,,0.00,WUHU216DAVISVP2,2013-02-27 11:33:00,
2013-02-27 06:38:00,48.2,43.0,29.79,WSW,246,3.0,12.0,82,0.00,,,0.00,WUHU216DAVISVP2,2013-02-27 11:38:00,
2013-02-27 06:43:00,48.0,43.1,29.79,West,269,6.0,15.0,83,0.00,,,0.00,WUHU216DAVISVP2,2013-02-27 11:43:00,
2013-02-27 06:48:00,47.9,43.3,29.79,WNW,287,9.0,15.0,84,0.00,,,0.00,WUHU216DAVISVP2,2013-02-27 11:48:00,
2013-02-27 06:53:00,47.8,43.2,29.79,WSW,242,3.0,15.0,84,0.00,,,0.00,WUHU216DAVISVP2,2013-02-27 11:53:00,
2013-02-27 06:58:00,47.6,43.0,29.79,WSW,249,6.0,15.0,84,0.00,,,0.00,WUHU216DAVISVP2,2013-02-27 11:58:00,
2013-02-27 07:03:00,47.5,42.6,29.80,WSW,245,12.0,18.0,83,0.00,,,0.00,WUHU216DAVISVP2,2013-02-27 12:03:00,
2013-02-27 07:08:00,47.5,42.6,29.80,SW,231,9.0,18.0,83,0.00,,,0.00,WUHU216DAVISVP2,2013-02-27 12:08:00,
2013-02-27 07:13:00,47.5,42.3,29.80,West,276,6.0,21.0,82,0.00,,,0.00,WUHU216DAVISVP2,2013-02-27 12:13:00,
2013-02-27 07:18:00,47.4,41.9,29.79,WNW,286,6.0,21.0,81,0.00,,,0.00,WUHU216DAVISVP2,2013-02-27 12:18:00,
2013-02-27 07:24:00,47.4,42.2,29.80,West,270,6.0,15.0,82,0.00,,,0.00,WUHU216DAVISVP2,2013-02-27 12:24:00,
2013-02-27 07:29:00,47.3,42.1,29.80,West,269,9.0,18.0,82,0.00,,,0.00,WUHU216DAVISVP2,2013-02-27 12:29:00,
2013-02-27 07:34:00,47.5,42.0,29.81,WSW,242,9.0,18.0,81,0.00,,,0.00,WUHU216DAVISVP2,2013-02-27 12:34:00,
2013-02-27 07:39:00,47.6,42.1,29.81,SW,229,9.0,18.0,81,0.00,,,0.00,WUHU216DAVISVP2,2013-02-27 12:39:00,
2013-02-27 07:44:00,47.7,41.9,29.81,SW,221,12.0,18.0,80,0.00,,,0.00,WUHU216DAVISVP2,2013-02-27 12:44:00,
2013-02-27 07:49:00,47.9,42.1,29.81,WNW,295,3.0,18.0,80,0.00,,,0.00,WUHU216DAVISVP2,2013-02-27 12:49:00,
2013-02-27 07:54:00,47.9,42.1,29.82,NW,321,9.0,18.0,80,0.00,,,0.00,WUHU216DAVISVP2,2013-02-27 12:54:00,
2013-02-27 07:59:00,48.0,42.2,29.82,WSW,255,3.0,12.0,80,0.00,,,0.00,WUHU216DAVISVP2,2013-02-27 12:59:00,
2013-02-27 08:04:00,48.1,42.3,29.82,West,270,0.0,15.0,80,0.00,,,0.00,WUHU216DAVISVP2,2013-02-27 13:04:00,
2013-02-27 08:09:00,48.1,41.9,29.82,WSW,243,3.0,24.0,79,0.00,,,0.00,WUHU216DAVISVP2,2013-02-27 13:09:00,
2013-02-27 08:14:00,48.2,41.7,29.82,WSW,257,6.0,24.0,78,0.00,,,0.00,WUHU216DAVISVP2,2013-02-27 13:14:00,
2013-02-27 08:19:00,48.2,41.7,29.83,West,259,6.0,18.0,78,0.00,,,0.00,WUHU216DAVISVP2,2013-02-27 13:19:00,
2013-02-27 08:24:00,48.2,41.7,29.83,West,266,6.0,18.0,78,0.00,,,0.00,WUHU216DAVISVP2,2013-02-27 13:24:00,
2013-02-27 08:29:00,48.1,41.3,29.84,SW,219,3.0,30.0,77,0.00,,,0.00,WUHU216DAVISVP2,2013-02-27 13:29:00,
2013-02-27 08:34:00,48.1,41.6,29.84,West,263,6.0,30.0,78,0.00,,,0.00,WUHU216DAVISVP2,2013-02-27 13:34:00,
2013-02-27 08:39:00,48.1,41.3,29.83,West,276,9.0,21.0,77,0.00,,,0.00,WUHU216DAVISVP2,2013-02-27 13:39:00,
2013-02-27 08:44:00,48.2,41.7,29.83,West,280,6.0,21.0,78,0.00,,,0.00,WUHU216DAVISVP2,2013-02-27 13:44:00,
2013-02-27 08:49:00,48.3,41.5,29.84,West,275,3.0,18.0,77,0.00,,,0.00,WUHU216DAVISVP2,2013-02-27 13:49:00,
2013-02-27 08:55:00,48.4,41.9,29.84,West,271,15.0,21.0,78,0.00,,,0.00,WUHU216DAVISVP2,2013-02-27 13:55:00,
2013-02-27 09:00:00,48.5,41.3,29.84,West,266,15.0,30.0,76,0.00,,,0.00,WUHU216DAVISVP2,2013-02-27 14:00:00,
2013-02-27 09:05:00,48.6,41.1,29.84,West,266,3.0,30.0,75,0.00,,,0.00,WUHU216DAVISVP2,2013-02-27 14:05:00,
2013-02-27 09:17:00,48.9,41.4,29.84,WNW,293,6.0,24.0,75,0.00,,,0.00,WUHU216DAVISVP2,2013-02-27 14:17:00,
2013-02-27 09:22:00,49.3,41.4,29.84,SSW,205,6.0,15.0,74,0.00,,,0.00,WUHU216DAVISVP2,2013-02-27 14:22:00,
2013-02-27 09:31:00,49.5,41.6,29.84,SW,224,12.0,15.0,74,0.00,,,0.00,WUHU216DAVISVP2,2013-02-27 14:31:00,
2013-02-27 09:36:00,49.8,41.6,29.85,West,280,3.0,24.0,73,0.00,,,0.00,WUHU216DAVISVP2,2013-02-27 14:36:00,
2013-02-27 09:41:00,50.1,41.5,29.84,SW,228,18.0,24.0,72,0.00,,,0.00,WUHU216DAVISVP2,2013-02-27 14:41:00,
2013-02-27 09:46:00,50.4,41.5,29.85,NW,307,3.0,21.0,71,0.00,,,0.00,WUHU216DAVISVP2,2013-02-27 14:46:00,
2013-02-27 09:51:00,50.8,41.4,29.85,West,276,3.0,21.0,70,0.00,,,0.00,WUHU216DAVISVP2,2013-02-27 14:51:00,
2013-02-27 09:56:00,51.2,42.1,29.84,WSW,246,21.0,27.0,71,0.00,,,0.00,WUHU216DAVISVP2,2013-02-27 14:56:00,
2013-02-27 10:01:00,51.4,41.3,29.84,West,263,3.0,27.0,68,0.00,,,0.00,WUHU216DAVISVP2,2013-02-27 15:01:00,
2013-02-27 10:06:00,51.4,41.7,29.83,West,281,3.0,16.0,69,0.00,,,0.00,WUHU216DAVISVP2,2013-02-27 15:06:00,
2013-02-27 10:12:00,51.7,42.0,29.84,NW,314,6.0,16.0,69,0.00,,,0.00,WUHU216DAVISVP2,2013-02-27 15:12:00,
2013-02-27 10:17:00,52.1,41.6,29.84,WNW,296,9.0,15.0,67,0.00,,,0.00,WUHU216DAVISVP2,2013-02-27 15:17:00,
2013-02-27 10:22:00,51.9,41.4,29.84,West,271,6.0,21.0,67,0.00,,,0.00,WUHU216DAVISVP2,2013-02-27 15:22:00,
2013-02-27 10:27:00,52.2,42.0,29.84,West,276,6.0,21.0,68,0.00,,,0.00,WUHU216DAVISVP2,2013-02-27 15:27:00,
2013-02-27 10:32:00,52.3,41.3,29.84,WSW,255,6.0,18.0,66,0.00,,,0.00,WUHU216DAVISVP2,2013-02-27 15:32:00,
2013-02-27 10:37:00,52.6,42.7,29.84,SW,221,3.0,14.0,69,0.00,,,0.00,WUHU216DAVISVP2,2013-02-27 15:37:00,
2013-02-27 10:42:00,52.8,41.9,29.84,NW,308,9.0,15.0,66,0.00,,,0.00,WUHU216DAVISVP2,2013-02-27 15:42:00,
2013-02-27 10:47:00,53.1,42.9,29.84,SW,222,9.0,18.0,68,0.00,,,0.00,WUHU216DAVISVP2,2013-02-27 15:47:00,
2013-02-27 10:52:00,53.2,41.9,29.84,NNW,345,9.0,18.0,65,0.00,,,0.00,WUHU216DAVISVP2,2013-02-27 15:52:00,
2013-02-27 10:57:00,53.4,42.0,29.84,NNW,330,6.0,18.0,65,0.00,,,0.00,WUHU216DAVISVP2,2013-02-27 15:57:00,
2013-02-27 11:02:00,54.3,42.1,29.84,WSW,239,6.0,18.0,63,0.00,,,0.00,WUHU216DAVISVP2,2013-02-27 16:02:00,
2013-02-27 11:07:00,54.5,41.9,29.84,NNW,330,15.0,18.0,62,0.00,,,0.00,WUHU216DAVISVP2,2013-02-27 16:07:00,
2013-02-27 11:12:00,54.8,42.1,29.85,West,280,12.0,18.0,62,0.00,,,0.00,WUHU216DAVISVP2,2013-02-27 16:12:00,
2013-02-27 11:17:00,54.5,41.9,29.85,WSW,239,12.0,15.0,62,0.00,,,0.00,WUHU216DAVISVP2,2013-02-27 16:17:00,
2013-02-27 11:22:00,54.5,41.9,29.84,West,273,3.0,24.0,62,0.00,,,0.00,WUHU216DAVISVP2,2013-02-27 16:22:00,
2013-02-27 11:27:00,55.2,42.1,29.84,WSW,246,3.0,24.0,61,0.00,,,0.00,WUHU216DAVISVP2,2013-02-27 16:27:00,
2013-02-27 11:32:00,55.2,42.1,29.84,WSW,248,6.0,18.0,61,0.00,,,0.00,WUHU216DAVISVP2,2013-02-27 16:32:00,
2013-02-27 11:37:00,55.4,41.7,29.84,SW,232,6.0,18.0,60,0.00,,,0.00,WUHU216DAVISVP2,2013-02-27 16:37:00,
2013-02-27 11:42:00,56.1,42.8,29.84,WNW,284,3.0,24.0,61,0.00,,,0.00,WUHU216DAVISVP2,2013-02-27 16:42:00,
2013-02-27 11:47:00,56.0,42.0,29.84,NNW,335,6.0,24.0,59,0.00,,,0.00,WUHU216DAVISVP2,2013-02-27 16:47:00,
2013-02-27 11:52:00,56.3,41.8,29.84,SW,233,9.0,21.0,58,0.00,,,0.00,WUHU216DAVISVP2,2013-02-27 16:52:00,
2013-02-27 11:57:00,56.3,41.7,29.83,NW,325,9.0,18.0,58,0.00,,,0.00,WUHU216DAVISVP2,2013-02-27 16:57:00,
2013-02-27 12:02:00,56.4,41.9,29.82,NW,315,6.0,18.0,58,0.00,,,0.00,WUHU216DAVISVP2,2013-02-27 17:02:00,
2013-02-27 12:07:00,56.3,41.7,29.81,South,170,6.0,15.0,58,0.00,,,0.00,WUHU216DAVISVP2,2013-02-27 17:07:00,
2013-02-27 12:12:00,56.6,41.5,29.81,NNE,25,3.0,12.0,57,0.00,,,0.00,WUHU216DAVISVP2,2013-02-27 17:12:00,
2013-02-27 12:17:00,57.6,42.5,29.81,WNW,288,0.0,9.0,57,0.00,,,0.00,WUHU216DAVISVP2,2013-02-27 17:17:00,
2013-02-27 12:22:00,57.7,41.6,29.81,WSW,255,0.0,9.0,55,0.00,,,0.00,WUHU216DAVISVP2,2013-02-27 17:22:00,
2013-02-27 12:27:00,57.6,41.5,29.81,NW,318,6.0,15.0,55,0.00,,,0.00,WUHU216DAVISVP2,2013-02-27 17:27:00,
2013-02-27 12:32:00,57.2,41.2,29.80,West,263,3.0,15.0,55,0.00,,,0.00,WUHU216DAVISVP2,2013-02-27 17:32:00,
2013-02-27 12:37:00,57.2,42.1,29.80,SW,232,9.0,12.0,57,0.00,,,0.00,WUHU216DAVISVP2,2013-02-27 17:37:00,
2013-02-27 12:42:00,57.2,43.9,29.80,SW,218,3.0,12.0,61,0.00,,,0.00,WUHU216DAVISVP2,2013-02-27 17:42:00,
2013-02-27 12:47:00,57.3,44.8,29.80,SSW,212,6.0,12.0,63,0.00,,,0.00,WUHU216DAVISVP2,2013-02-27 17:47:00,
2013-02-27 12:52:00,56.8,44.3,29.80,SSW,200,6.0,15.0,63,0.00,,,0.00,WUHU216DAVISVP2,2013-02-27 17:52:00,
2013-02-27 12:57:00,56.6,43.7,29.80,WSW,252,9.0,15.0,62,0.00,,,0.00,WUHU216DAVISVP2,2013-02-27 17:57:00,
2013-02-27 13:02:00,56.2,43.8,29.80,SSE,155,6.0,15.0,63,0.00,,,0.00,WUHU216DAVISVP2,2013-02-27 18:02:00,
2013-02-27 13:07:00,56.4,43.5,29.80,SSE,165,9.0,15.0,62,0.00,,,0.00,WUHU216DAVISVP2,2013-02-27 18:07:00,
2013-02-27 13:12:00,56.1,43.8,29.80,SW,228,9.0,12.0,63,0.00,,,0.00,WUHU216DAVISVP2,2013-02-27 18:12:00,
2013-02-27 13:17:00,55.8,43.9,29.80,SSE,166,12.0,15.0,64,0.00,,,0.00,WUHU216DAVISVP2,2013-02-27 18:17:00,
2013-02-27 13:22:00,55.2,43.4,29.80,WSW,256,6.0,15.0,64,0.00,,,0.00,WUHU216DAVISVP2,2013-02-27 18:22:00,
2013-02-27 13:27:00,55.0,44.0,29.80,SW,221,6.0,15.0,66,0.00,,,0.00,WUHU216DAVISVP2,2013-02-27 18:27:00,
2013-02-27 13:32:00,54.9,43.1,29.80,WSW,241,6.0,15.0,64,0.00,,,0.00,WUHU216DAVISVP2,2013-02-27 18:32:00,
2013-02-27 13:37:00,54.7,43.3,29.80,WNW,284,6.0,18.0,65,0.00,,,0.00,WUHU216DAVISVP2,2013-02-27 18:37:00,
2013-02-27 13:42:00,54.8,44.2,29.80,WSW,242,6.0,18.0,67,0.00,,,0.00,WUHU216DAVISVP2,2013-02-27 18:42:00,
2013-02-27 13:47:00,54.9,43.9,29.80,SSW,198,6.0,12.0,66,0.00,,,0.00,WUHU216DAVISVP2,2013-02-27 18:47:00,
2013-02-27 13:52:00,55.0,44.0,29.80,SSW,203,6.0,12.0,66,0.00,,,0.00,WUHU216DAVISVP2,2013-02-27 18:52:00,
2013-02-27 13:57:00,55.1,44.5,29.79,SW,231,9.0,12.0,67,0.00,,,0.00,WUHU216DAVISVP2,2013-02-27 18:57:00,
2013-02-27 14:02:00,55.1,43.7,29.79,SW,224,6.0,12.0,65,0.00,,,0.00,WUHU216DAVISVP2,2013-02-27 19:02:00,
2013-02-27 14:07:00,54.6,42.8,29.80,SSW,206,12.0,18.0,64,0.00,,,0.00,WUHU216DAVISVP2,2013-02-27 19:07:00,
2013-02-27 14:12:00,54.5,43.1,29.80,SW,222,15.0,21.0,65,0.00,,,0.00,WUHU216DAVISVP2,2013-02-27 19:12:00,
2013-02-27 14:17:00,54.4,43.0,29.80,South,190,9.0,21.0,65,0.00,,,0.00,WUHU216DAVISVP2,2013-02-27 19:17:00,
2013-02-27 14:22:00,54.8,43.8,29.80,WSW,238,6.0,15.0,66,0.00,,,0.00,WUHU216DAVISVP2,2013-02-27 19:22:00,
2013-02-27 14:27:00,54.9,43.5,29.80,SW,232,6.0,21.0,65,0.00,,,0.00,WUHU216DAVISVP2,2013-02-27 19:27:00,
2013-02-27 14:32:00,55.1,44.1,29.80,WSW,239,6.0,24.0,66,0.00,,,0.00,WUHU216DAVISVP2,2013-02-27 19:32:00,
2013-02-27 14:37:00,55.1,43.3,29.80,WSW,240,9.0,24.0,64,0.00,,,0.00,WUHU216DAVISVP2,2013-02-27 19:37:00,
2013-02-27 14:42:00,55.1,44.9,29.79,South,185,6.0,18.0,68,0.00,,,0.00,WUHU216DAVISVP2,2013-02-27 19:42:00,
2013-02-27 14:47:00,54.9,43.9,29.79,SSW,205,6.0,15.0,66,0.00,,,0.00,WUHU216DAVISVP2,2013-02-27 19:47:00,
2013-02-27 14:52:00,54.7,44.5,29.79,SW,229,6.0,18.0,68,0.00,,,0.00,WUHU216DAVISVP2,2013-02-27 19:52:00,
2013-02-27 14:57:00,54.9,45.4,29.79,SW,219,3.0,18.0,70,0.00,,,0.00,WUHU216DAVISVP2,2013-02-27 19:57:00,
2013-02-27 15:02:00,55.0,44.8,29.79,SSW,210,9.0,18.0,68,0.00,,,0.00,WUHU216DAVISVP2,2013-02-27 20:02:00,
2013-02-27 15:07:00,54.9,44.3,29.79,WSW,238,9.0,18.0,67,0.00,,,0.00,WUHU216DAVISVP2,2013-02-27 20:07:00,
2013-02-27 15:12:00,54.8,44.9,29.79,SSW,193,9.0,18.0,69,0.00,,,0.00,WUHU216DAVISVP2,2013-02-27 20:12:00,
2013-02-27 15:17:00,54.8,45.3,29.79,SSW,203,3.0,15.0,70,0.00,,,0.00,WUHU216DAVISVP2,2013-02-27 20:17:00,
2013-02-27 15:22:00,54.6,45.5,29.79,SSW,203,6.0,18.0,71,0.00,,,0.00,WUHU216DAVISVP2,2013-02-27 20:22:00,
2013-02-27 15:27:00,54.7,46.0,29.79,East,101,6.0,18.0,72,0.00,,,0.00,WUHU216DAVISVP2,2013-02-27 20:27:00,
2013-02-27 15:32:00,54.6,45.5,29.79,South,186,6.0,18.0,71,0.00,,,0.00,WUHU216DAVISVP2,2013-02-27 20:32:00,
2013-02-27 15:37:00,54.4,45.7,29.79,SW,229,18.0,18.0,72,0.00,,,0.00,WUHU216DAVISVP2,2013-02-27 20:37:00,
2013-02-27 15:42:00,53.9,45.5,29.79,SW,222,15.0,24.0,73,0.00,,,0.00,WUHU216DAVISVP2,2013-02-27 20:42:00,
2013-02-27 15:47:00,53.9,46.6,29.79,West,271,6.0,24.0,76,0.00,,,0.00,WUHU216DAVISVP2,2013-02-27 20:47:00,
2013-02-27 15:52:00,53.9,46.6,29.79,SW,215,3.0,15.0,76,0.00,,,0.00,WUHU216DAVISVP2,2013-02-27 20:52:00,
2013-02-27 15:57:00,53.7,46.4,29.79,SW,232,6.0,15.0,76,0.00,,,0.00,WUHU216DAVISVP2,2013-02-27 20:57:00,
2013-02-27 16:02:00,53.7,47.1,29.79,SSW,194,6.0,12.0,78,0.00,,,0.00,WUHU216DAVISVP2,2013-02-27 21:02:00,
2013-02-27 16:07:00,53.3,46.7,29.79,SSW,198,9.0,27.0,78,0.00,,,0.00,WUHU216DAVISVP2,2013-02-27 21:07:00,
2013-02-27 16:12:00,53.2,46.9,29.79,SW,223,3.0,27.0,79,0.00,,,0.00,WUHU216DAVISVP2,2013-02-27 21:12:00,
2013-02-27 16:17:00,53.2,46.9,29.79,SSW,212,3.0,16.0,79,0.00,,,0.00,WUHU216DAVISVP2,2013-02-27 21:17:00,
2013-02-27 16:22:00,53.2,46.9,29.78,SW,233,9.0,12.0,79,0.00,,,0.00,WUHU216DAVISVP2,2013-02-27 21:22:00,
2013-02-27 16:27:00,52.9,46.6,29.78,South,191,6.0,18.0,79,0.00,,,0.00,WUHU216DAVISVP2,2013-02-27 21:27:00,
2013-02-27 16:32:00,52.7,46.7,29.78,South,186,6.0,18.0,80,0.00,,,0.00,WUHU216DAVISVP2,2013-02-27 21:32:00,
2013-02-27 16:37:00,52.7,47.1,29.78,SW,236,3.0,12.0,81,0.00,,,0.00,WUHU216DAVISVP2,2013-02-27 21:37:00,
2013-02-27 16:42:00,52.6,47.0,29.77,SSW,198,3.0,12.0,81,0.00,,,0.00,WUHU216DAVISVP2,2013-02-27 21:42:00,
2013-02-27 16:47:00,52.4,47.1,29.77,SSW,200,0.0,12.0,82,0.00,,,0.00,WUHU216DAVISVP2,2013-02-27 21:47:00,
2013-02-27 16:52:00,52.4,47.1,29.77,SW,236,3.0,9.0,82,0.00,,,0.00,WUHU216DAVISVP2,2013-02-27 21:52:00,
2013-02-27 16:57:00,52.3,47.3,29.78,SSW,204,6.0,9.0,83,0.00,,,0.00,WUHU216DAVISVP2,2013-02-27 21:57:00,
2013-02-27 17:02:00,52.3,47.3,29.78,SW,233,3.0,12.0,83,0.00,,,0.00,WUHU216DAVISVP2,2013-02-27 22:02:00,
2013-02-27 17:07:00,52.3,47.3,29.78,SW,236,9.0,12.0,83,0.00,,,0.00,WUHU216DAVISVP2,2013-02-27 22:07:00,
2013-02-27 17:12:00,52.2,47.2,29.78,SW,228,3.0,15.0,83,0.00,,,0.00,WUHU216DAVISVP2,2013-02-27 22:12:00,
2013-02-27 17:17:00,52.2,47.2,29.78,SSW,210,3.0,15.0,83,0.00,,,0.00,WUHU216DAVISVP2,2013-02-27 22:17:00,
2013-02-27 17:22:00,52.1,47.1,29.78,SW,229,3.0,12.0,83,0.00,,,0.00,WUHU216DAVISVP2,2013-02-27 22:22:00,
2013-02-27 17:27:00,52.2,47.5,29.78,SW,232,6.0,12.0,84,0.00,,,0.00,WUHU216DAVISVP2,2013-02-27 22:27:00,
2013-02-27 17:30:00,52.2,47.5,29.78,SW,229,3.0,9.0,84,0.00,,,0.00,WUHU216DAVISVP2,2013-02-27 22:30:00,
2013-02-27 17:35:00,52.2,47.5,29.78,WSW,243,6.0,15.0,84,0.00,,,0.00,WUHU216DAVISVP2,2013-02-27 22:35:00,
2013-02-27 17:47:00,51.9,47.2,29.78,SW,224,3.0,15.0,84,0.00,,,0.00,WUHU216DAVISVP2,2013-02-27 22:47:00,
2013-02-27 17:52:00,51.8,47.4,29.78,SW,233,9.0,18.0,85,0.00,,,0.00,WUHU216DAVISVP2,2013-02-27 22:52:00,
2013-02-27 17:57:00,51.7,47.3,29.78,SSW,197,3.0,21.0,85,0.00,,,0.00,WUHU216DAVISVP2,2013-02-27 22:57:00,
2013-02-27 18:02:00,51.7,47.6,29.79,SW,228,9.0,21.0,86,0.00,,,0.00,WUHU216DAVISVP2,2013-02-27 23:02:00,
2013-02-27 18:07:00,51.6,47.5,29.79,SW,219,6.0,18.0,86,0.00,,,0.00,WUHU216DAVISVP2,2013-02-27 23:07:00,
2013-02-27 18:12:00,51.6,47.5,29.79,SSE,162,9.0,18.0,86,0.00,,,0.00,WUHU216DAVISVP2,2013-02-27 23:12:00,
2013-02-27 18:17:00,51.6,47.9,29.79,SW,235,6.0,18.0,87,0.00,,,0.00,WUHU216DAVISVP2,2013-02-27 23:17:00,
2013-02-27 18:22:00,51.6,47.9,29.79,SW,226,6.0,15.0,87,0.00,,,0.00,WUHU216DAVISVP2,2013-02-27 23:22:00,
2013-02-27 18:27:00,51.5,47.8,29.78,SSW,200,3.0,15.0,87,0.00,,,0.00,WUHU216DAVISVP2,2013-02-27 23:27:00,
2013-02-27 18:32:00,51.5,48.1,29.79,SW,235,6.0,15.0,88,0.00,,,0.00,WUHU216DAVISVP2,2013-02-27 23:32:00,
2013-02-27 18:37:00,51.4,48.0,29.79,South,183,9.0,15.0,88,0.00,,,0.00,WUHU216DAVISVP2,2013-02-27 23:37:00,
2013-02-27 18:42:00,51.4,48.0,29.79,SSW,193,3.0,10.0,88,0.00,,,0.00,WUHU216DAVISVP2,2013-02-27 23:42:00,
2013-02-27 18:47:00,51.3,47.8,29.79,SW,229,0.0,12.0,88,0.00,,,0.00,WUHU216DAVISVP2,2013-02-27 23:47:00,
2013-02-27 18:52:00,51.3,48.2,29.79,SW,231,9.0,15.0,89,0.00,,,0.00,WUHU216DAVISVP2,2013-02-27 23:52:00,
2013-02-27 18:57:00,51.4,48.3,29.79,SSW,198,6.0,15.0,89,0.00,,,0.00,WUHU216DAVISVP2,2013-02-27 23:57:00,
2013-02-27 19:02:00,51.4,48.3,29.79,SW,233,3.0,15.0,89,0.00,,,0.00,WUHU216DAVISVP2,2013-02-28 00:02:00,
2013-02-27 19:07:00,51.4,48.2,29.79,SW,221,3.0,12.0,89,0.00,,,0.00,WUHU216DAVISVP2,2013-02-28 00:07:00,
2013-02-27 19:12:00,51.4,48.2,29.79,SW,232,6.0,12.0,89,0.00,,,0.00,WUHU216DAVISVP2,2013-02-28 00:12:00,
2013-02-27 19:17:00,51.3,48.4,29.79,SSW,205,0.0,12.0,90,0.00,,,0.00,WUHU216DAVISVP2,2013-02-28 00:17:00,
2013-02-27 19:22:00,51.3,48.4,29.79,WSW,242,3.0,15.0,90,0.00,,,0.00,WUHU216DAVISVP2,2013-02-28 00:22:00,
2013-02-27 19:27:00,51.3,48.4,29.79,WSW,252,6.0,15.0,90,0.00,,,0.00,WUHU216DAVISVP2,2013-02-28 00:27:00,
2013-02-27 19:32:00,51.3,48.4,29.79,SW,233,9.0,12.0,90,0.00,,,0.00,WUHU216DAVISVP2,2013-02-28 00:32:00,
2013-02-27 19:37:00,51.2,48.3,29.79,SW,233,6.0,12.0,90,0.00,,,0.00,WUHU216DAVISVP2,2013-02-28 00:37:00,
2013-02-27 19:42:00,51.2,48.3,29.79,WSW,245,6.0,12.0,90,0.00,,,0.00,WUHU216DAVISVP2,2013-02-28 00:42:00,
2013-02-27 19:47:00,51.2,48.3,29.79,WSW,238,6.0,12.0,90,0.00,,,0.00,WUHU216DAVISVP2,2013-02-28 00:47:00,
2013-02-27 19:52:00,51.2,48.3,29.79,SW,233,6.0,9.0,90,0.00,,,0.00,WUHU216DAVISVP2,2013-02-28 00:52:00,
2013-02-27 19:57:00,51.1,48.3,29.79,SSW,193,6.0,9.0,90,0.00,,,0.00,WUHU216DAVISVP2,2013-02-28 00:57:00,
2013-02-27 20:02:00,51.1,48.3,29.79,WSW,248,9.0,12.0,90,0.00,,,0.00,WUHU216DAVISVP2,2013-02-28 01:02:00,
2013-02-27 20:07:00,51.1,48.5,29.79,SW,232,3.0,12.0,91,0.00,,,0.00,WUHU216DAVISVP2,2013-02-28 01:07:00,
2013-02-27 20:12:00,51.0,48.4,29.79,SW,233,3.0,9.0,91,0.00,,,0.00,WUHU216DAVISVP2,2013-02-28 01:12:00,
2013-02-27 20:17:00,50.9,48.4,29.79,WSW,239,3.0,6.0,91,0.00,,,0.00,WUHU216DAVISVP2,2013-02-28 01:17:00,
2013-02-27 20:22:00,50.9,48.4,29.79,WSW,245,3.0,6.0,91,0.00,,,0.00,WUHU216DAVISVP2,2013-02-28 01:22:00,
2013-02-27 20:27:00,50.9,48.4,29.79,West,263,6.0,9.0,91,0.00,,,0.00,WUHU216DAVISVP2,2013-02-28 01:27:00,
2013-02-27 20:32:00,51.0,48.4,29.79,WSW,239,6.0,12.0,91,0.00,,,0.00,WUHU216DAVISVP2,2013-02-28 01:32:00,
2013-02-27 20:37:00,51.0,48.4,29.79,SW,231,6.0,12.0,91,0.00,,,0.00,WUHU216DAVISVP2,2013-02-28 01:37:00,
2013-02-27 20:42:00,51.0,48.4,29.79,WSW,245,6.0,9.0,91,0.00,,,0.00,WUHU216DAVISVP2,2013-02-28 01:42:00,
2013-02-27 20:47:00,51.1,48.5,29.79,SW,236,6.0,18.0,91,0.00,,,0.00,WUHU216DAVISVP2,2013-02-28 01:47:00,
2013-02-27 20:52:00,51.1,48.2,29.79,SW,235,6.0,18.0,90,0.00,,,0.00,WUHU216DAVISVP2,2013-02-28 01:52:00,
2013-02-27 20:57:00,51.1,48.2,29.79,WSW,238,6.0,12.0,90,0.00,,,0.00,WUHU216DAVISVP2,2013-02-28 01:57:00,
2013-02-27 21:02:00,51.1,48.2,29.79,SW,222,3.0,12.0,90,0.00,,,0.00,WUHU216DAVISVP2,2013-02-28 02:02:00,
2013-02-27 21:07:00,51.1,48.2,29.80,SW,235,6.0,12.0,90,0.00,,,0.00,WUHU216DAVISVP2,2013-02-28 02:07:00,
2013-02-27 21:12:00,51.1,48.2,29.79,SW,228,0.0,18.0,90,0.00,,,0.00,WUHU216DAVISVP2,2013-02-28 02:12:00,
2013-02-27 21:17:00,51.1,48.2,29.79,SW,233,3.0,18.0,90,0.00,,,0.00,WUHU216DAVISVP2,2013-02-28 02:17:00,
2013-02-27 21:22:00,51.0,48.1,29.79,SSW,210,3.0,10.0,90,0.00,,,0.00,WUHU216DAVISVP2,2013-02-28 02:22:00,
2013-02-27 21:27:00,51.0,47.8,29.79,SW,222,3.0,10.0,89,0.00,,,0.00,WUHU216DAVISVP2,2013-02-28 02:27:00,
2013-02-27 21:32:00,51.1,47.9,29.79,SW,215,0.0,9.0,89,0.00,,,0.00,WUHU216DAVISVP2,2013-02-28 02:32:00,
2013-02-27 21:37:00,51.0,47.8,29.79,SW,235,3.0,9.0,89,0.00,,,0.00,WUHU216DAVISVP2,2013-02-28 02:37:00,
2013-02-27 21:42:00,51.1,47.9,29.79,SSW,196,3.0,15.0,89,0.00,,,0.00,WUHU216DAVISVP2,2013-02-28 02:42:00,
2013-02-27 21:47:00,51.0,47.8,29.79,SW,221,3.0,15.0,89,0.00,,,0.00,WUHU216DAVISVP2,2013-02-28 02:47:00,
2013-02-27 21:52:00,51.0,47.8,29.79,SW,225,3.0,9.0,89,0.00,,,0.00,WUHU216DAVISVP2,2013-02-28 02:52:00,
2013-02-27 21:57:00,51.0,47.5,29.79,WSW,245,6.0,9.0,88,0.00,,,0.00,WUHU216DAVISVP2,2013-02-28 02:57:00,
2013-02-27 22:02:00,51.0,47.2,29.79,SW,236,3.0,12.0,87,0.00,,,0.00,WUHU216DAVISVP2,2013-02-28 03:02:00,
2013-02-27 22:07:00,51.1,47.3,29.79,SW,236,6.0,12.0,87,0.00,,,0.00,WUHU216DAVISVP2,2013-02-28 03:07:00,
2013-02-27 22:12:00,51.1,47.0,29.79,West,278,9.0,15.0,86,0.00,,,0.00,WUHU216DAVISVP2,2013-02-28 03:12:00,
2013-02-27 22:17:00,51.2,47.1,29.79,WSW,243,6.0,15.0,86,0.00,,,0.00,WUHU216DAVISVP2,2013-02-28 03:17:00,
2013-02-27 22:22:00,51.3,46.9,29.79,SSW,212,6.0,21.0,85,0.00,,,0.00,WUHU216DAVISVP2,2013-02-28 03:22:00,
2013-02-27 22:27:00,51.3,46.9,29.79,WSW,252,6.0,21.0,85,0.00,,,0.00,WUHU216DAVISVP2,2013-02-28 03:27:00,
2013-02-27 22:32:00,51.3,46.9,29.79,WSW,241,9.0,21.0,85,0.00,,,0.00,WUHU216DAVISVP2,2013-02-28 03:32:00,
2013-02-27 22:37:00,51.2,46.8,29.79,SW,224,3.0,21.0,85,0.00,,,0.00,WUHU216DAVISVP2,2013-02-28 03:37:00,
2013-02-27 22:42:00,51.1,46.4,29.79,WSW,249,9.0,21.0,84,0.00,,,0.00,WUHU216DAVISVP2,2013-02-28 03:42:00,
2013-02-27 22:47:00,51.0,46.3,29.79,West,259,3.0,21.0,84,0.00,,,0.00,WUHU216DAVISVP2,2013-02-28 03:47:00,
2013-02-27 22:52:00,50.9,46.2,29.79,WSW,245,9.0,18.0,84,0.00,,,0.00,WUHU216DAVISVP2,2013-02-28 03:52:00,
2013-02-27 22:57:00,50.9,46.2,29.79,SW,232,9.0,18.0,84,0.00,,,0.00,WUHU216DAVISVP2,2013-02-28 03:57:00,
2013-02-27 23:02:00,50.8,45.8,29.79,SW,229,3.0,15.0,83,0.00,,,0.00,WUHU216DAVISVP2,2013-02-28 04:02:00,
2013-02-27 23:07:00,50.7,45.7,29.79,SW,236,3.0,15.0,83,0.00,,,0.00,WUHU216DAVISVP2,2013-02-28 04:07:00,
2013-02-27 23:12:00,50.5,45.5,29.79,WSW,248,6.0,12.0,83,0.00,,,0.00,WUHU216DAVISVP2,2013-02-28 04:12:00,
2013-02-27 23:17:00,50.5,45.5,29.79,West,270,6.0,15.0,83,0.00,,,0.00,WUHU216DAVISVP2,2013-02-28 04:17:00,
2013-02-27 23:22:00,50.5,45.8,29.79,WSW,245,6.0,15.0,84,0.00,,,0.00,WUHU216DAVISVP2,2013-02-28 04:22:00,
2013-02-27 23:27:00,50.3,45.7,29.79,WSW,255,9.0,15.0,84,0.00,,,0.00,WUHU216DAVISVP2,2013-02-28 04:27:00,
2013-02-27 23:32:00,50.3,45.7,29.79,WSW,250,9.0,15.0,84,0.00,,,0.00,WUHU216DAVISVP2,2013-02-28 04:32:00,
2013-02-27 23:37:00,50.3,45.7,29.79,SW,218,6.0,21.0,84,0.00,,,0.00,WUHU216DAVISVP2,2013-02-28 04:37:00,
2013-02-27 23:42:00,50.2,45.6,29.78,WSW,242,6.0,21.0,84,0.00,,,0.00,WUHU216DAVISVP2,2013-02-28 04:42:00,
2013-02-27 23:47:00,50.1,45.5,29.79,WSW,241,6.0,15.0,84,0.00,,,0.00,WUHU216DAVISVP2,2013-02-28 04:47:00,
2013-02-27 23:52:00,50.1,45.5,29.78,WSW,246,6.0,18.0,84,0.00,,,0.00,WUHU216DAVISVP2,2013-02-28 04:52:00,
2013-02-27 23:57:00,50.1,45.5,29.78,WSW,239,6.0,18.0,84,0.00,,,0.00,WUHU216DAVISVP2,2013-02-28 04:57:00,